GSAT0202

Last updated on May 29, 2016, 9:40 a.m. UTC

1 40129U 14050B   16150.01612624 -.00000062  00000-0  00000+0 0  9999
2 40129  50.1286  59.6096 1592709  51.0483 322.1027  1.85518933 12349
UTC
Height (km)
Latitude
Longitude
Inclination
Orbital Period
UTC large
Height (km)
Speed (km/s)
/
Latitude / Longitude
Inclination (degrees)
Orbital Period (minutes)
Azimuth
Elevation
Range (km)
Doppler Factor
iOS Compass Heading
iOS Angle

Next 30 passes for location: Hong Kong

Rise time Rise Azimuth (degrees) Set time Set Azimuth (degrees) Duration Max altitude (degrees)

No matching passes for this satellites